CZ-4B R/B (27432 NORAD) Tracking and Keplerian Element Data

This shows tracking and keplerian element data for the satellite.

Feedback or suggestion? Click here.




ElementValue
Catalog27432
NameCZ-4B R/B
Epoch Orbit83464
Epoch Day198.91294007
Epoch Year2018
RAAN180.8436
Inclination99.0353
Eccentricity0.0050441
Argument of Perigee354.9057
Mean Anonmoly33.8916
Mean Motion14.14067037
Decay Rate-3.1E-07
L11 27432U 02024C 18198.91294007 -.00000031 00000-0 79889-5 0 9996
L22 27432 99.0353 180.8436 0050441 354.9057 33.8916 14.14067037834644

Live tracking and technical data element details for CZ-4B R/B (NORAD 27432). CZ-4B R/B can be tracked NOW for your location showing map with azimuth and elevation plus other details from your city location.

Track the satellite on the map from your city or location and see movement details for azimuth, elevation, latitude, longitude, range, height, and movement on the map or in text.







IsCatalogInMostPopularTable: catalog: 27432, numindb: 21
Update: records affected: 1



GetName: 27432 CZ-4B R/B

Hit Count: updated at: Thu, 19 Jul 2018 21:25:02 GMT